This is the latest recevied weather packets stored in our database for station/object OK1FRN-6. If no packets are shown the sender has not sent any weather packets the latest 10 day(s).
| Time | Temp. | Humidity | Pressure | Rain* | Wind** | Luminosity | Snow |
|---|---|---|---|---|---|---|---|
| 1777936985 | 15° C | 72% | 1011.4 hPa | - | - | - | - |
| 1777936679 | 15° C | 72% | 1011.4 hPa | - | - | - | - |
| 1777935454 | 15° C | 73% | 1011.6 hPa | - | - | - | - |
| 1777934535 | 15.56° C | 70% | 1012 hPa | - | - | - | - |
| 1777933616 | 15.56° C | 66% | 1012.3 hPa | - | - | - | - |
| 1777933310 | 15.56° C | 65% | 1012.7 hPa | - | - | - | - |
| 1777933004 | 15.56° C | 62% | 1012.7 hPa | - | - | - | - |
| 1777932697 | 16.11° C | 61% | 1013 hPa | - | - | - | - |
| 1777932391 | 16.11° C | 60% | 1013.2 hPa | - | - | - | - |
| 1777932085 | 16.11° C | 59% | 1013.4 hPa | - | - | - | - |
| 1777931779 | 16.11° C | 57% | 1013.6 hPa | - | - | - | - |
| 1777931472 | 16.11° C | 55% | 1013.5 hPa | - | - | - | - |
| 1777931166 | 16.11° C | 54% | 1013.5 hPa | - | - | - | - |
| 1777930860 | 16.11° C | 55% | 1013.5 hPa | - | - | - | - |
| 1777930553 | 16.11° C | 54% | 1013.4 hPa | - | - | - | - |
| 1777929941 | 16.11° C | 52% | 1012.7 hPa | - | - | - | - |
| 1777929634 | 16.11° C | 51% | 1012.5 hPa | - | - | - | - |
| 1777929328 | 16.67° C | 51% | 1012.4 hPa | - | - | - | - |
| 1777929022 | 16.67° C | 51% | 1012.3 hPa | - | - | - | - |
| 1777928715 | 16.67° C | 51% | 1012.3 hPa | - | - | - | - |
| 1777928409 | 16.67° C | 50% | 1012.3 hPa | - | - | - | - |
| 1777928102 | 16.67° C | 50% | 1012.3 hPa | - | - | - | - |
| 1777927796 | 17.22° C | 49% | 1012.2 hPa | - | - | - | - |
| 1777927490 | 17.22° C | 49% | 1012.3 hPa | - | - | - | - |
| 1777927183 | 17.22° C | 49% | 1012.3 hPa | - | - | - | - |
* Rain since midnight (hover to see other rain measurements)
** Current wind speed in m/s (hover to see current wind gust speed)